Wind_Speed
30 30 31 31 30 29 29 30 29 28 27 24 22 20 18 17 16 14 14 14 15 15 15 14 14 14 14 14 15 16 15 15 14 14 14 15 16 16 17 17 18 18 18 18
31 31 32 32 32 31 30 31 31 30 29 27 25 22 19 18 17 17 17 16 16 17 17 17 16 17 17 17 18 18 18 18 18 17 17 17 17 18 18 19 20 20 19 19
33 32 33 33 32 31 31 31 31 30 29 27 27 24 22 20 19 19 18 17 18 19 20 19 18 18 19 19 19 19 19 19 18 18 18 18 18 19 20 21 21 21 21 21
33 33 36 33 32 31 31 31 30 29 28 27 26 24 23 22 21 21 21 21 20 20 19 19 20 20 20 20 20 21 21 21 20 20 20 20 20 21 22 22 23 22 23 22
33 34 35 33 32 31 31 30 29 28 28 27 26 25 25 23 22 22 22 23 22 21 21 21 21 21 21 21 22 22 23 23 22 22 22 22 22 23 24 25 25 25 26 25
33 33 34 31 31 31 31 30 29 29 29 28 27 26 25 24 24 24 24 24 24 23 24 23 23 23 23 23 24 25 25 25 25 24 24 25 26 26 26 27 27 27 27 27
34 34 34 32 31 30 31 30 29 29 29 28 28 26 25 26 26 25 25 25 25 25 25 24 24 24 25 26 26 26 26 26 27 26 27 27 27 26 27 28 29 28 28 28
35 35 34 32 31 31 30 29 29 28 28 27 27 27 27 28 27 26 26 26 27 27 27 26 26 26 27 27 27 27 27 27 28 28 28 28 29 29 29 30 30 29 29 29
35 35 34 32 30 30 29 29 29 28 28 28 27 28 29 29 28 28 28 28 28 28 28 28 28 28 28 28 28 27 28 28 29 29 29 30 30 30 30 30 31 31 31 31
33 33 34 33 30 30 30 30 29 29 29 28 28 29 28 28 28 28 28 28 29 30 29 29 29 29 29 30 29 29 29 29 30 30 30 31 31 31 31 31 32 31 31 31
33 32 32 32 30 29 28 28 28 28 30 30 29 30 30 29 29 29 28 28 29 30 30 30 29 29 29 30 30 30 30 30 31 31 31 31 31 31 32 32 32 31 31 31
32 31 31 30 30 28 27 26 27 28 29 30 30 30 30 30 29 29 29 30 30 30 30 30 30 30 31 32 32 32 32 32 32 31 31 32 32 33 33 33 33 33 32 32
31 30 30 30 29 28 28 28 28 29 29 30 31 31 31 30 30 30 30 30 30 30 31 32 32 32 32 33 33 33 33 33 33 33 33 33 34 33 34 33 33 33 33 33
30 30 30 29 29 29 29 28 28 28 28 29 29 29 29 30 31 32 32 31 32 33 33 33 33 33 33 33 33 33 33 33 34 34 34 34 33 33 34 34 34 33 34 34
29 29 29 29 30 30 29 29 28 29 28 28 29 29 29 29 31 32 33 34 34 33 33 33 34 34 34 34 34 34 34 34 34 34 34 34 34 34 34 34 34 34 35 35
27 28 28 28 28 28 27 28 29 29 29 29 29 29 29 30 31 32 33 34 33 33 34 34 34 34 35 34 34 34 35 35 35 34 34 34 34 34 35 35 34 34 35 34
27 27 27 28 28 28 28 29 29 29 29 27 27 27 28 29 31 32 32 32 32 33 34 34 33 34 34 33 33 34 34 34 34 34 34 34 33 34 34 34 34 34 34 33
26 26 26 26 27 27 27 27 28 28 27 26 26 27 28 29 30 30 30 31 32 32 33 33 32 33 33 32 33 33 33 34 33 33 33 33 33 33 34 34 34 34 34 33
24 24 24 24 25 25 24 25 25 25 25 25 26 26 27 28 28 28 29 30 31 31 31 30 29 29 30 30 30 30 30 31 31 31 31 31 32 32 33 33 34 34 34 34
23 23 23 24 24 23 23 23 23 24 24 25 26 26 27 27 27 26 27 27 28 28 28 28 28 28 28 28 28 28 28 29 29 29 30 30 31 31 32 32 33 34 34 33
23 23 23 23 23 23 22 22 22 22 23 23 23 24 24 24 24 24 25 25 26 26 27 27 27 26 26 26 26 26 26 27 27 28 28 29 30 31 32 33 33 33 33 33
22 22 22 22 22 21 21 21 21 21 21 21 22 22 23 23 23 23 23 23 24 24 24 24 24 24 23 23 24 24 24 25 26 27 28 29 30 31 32 33 33 33 33 32
19 21 21 21 21 20 20 20 20 19 19 19 19 20 21 22 22 21 21 21 21 21 21 21 21 21 21 21 22 23 24 25 26 27 28 29 30 31 31 32 32 32 32 31
18 19 19 20 20 19 19 18 17 17 17 17 18 19 19 19 18 18 18 18 18 19 20 20 19 19 19 20 21 22 23 24 26 27 28 28 29 29 29 30 30 31 31 30
16 16 17 17 18 17 17 16 16 16 17 17 17 17 17 17 17 16 17 17 18 18 18 18 18 18 18 19 20 21 23 24 25 26 26 27 27 28 29 30 30 30 31 31
13 13 14 14 15 15 15 15 15 15 15 15 15 15 16 16 17 17 17 17 18 17 18 18 18 18 19 19 21 23 24 25 25 26 27 28 28 29 29 29 30 31 32 32
11 11 11 12 12 12 12 12 12 13 13 13 13 14 15 15 16 16 16 16 16 16 17 18 18 19 21 22 22 23 24 25 26 27 28 28 28 29 29 29 30 31 32 32
Wind_Direction
236 237 237 239 241 241 243 245 249 253 256 260 265 269 269 267 266 268 270 275 279 280 281 283 282 278 280 284 280 276 275 278 279 282 285 287 291 294 296 297 297 298 301 302
237 239 241 241 242 244 246 247 249 252 254 259 264 267 268 265 265 268 273 279 281 280 280 282 283 280 277 281 282 279 277 279 281 283 289 287 288 292 295 296 296 295 297 298
239 240 243 243 244 246 247 248 250 252 255 259 264 266 266 266 265 267 271 277 278 279 280 278 277 280 280 280 282 284 285 285 284 285 289 288 288 291 293 295 295 295 295 296
242 241 244 245 245 246 248 248 249 251 254 257 260 263 263 264 266 269 270 273 274 277 277 276 277 278 282 281 282 284 284 284 285 285 286 285 285 288 290 292 292 293 294 295
243 244 245 245 245 244 246 247 248 252 255 257 258 261 261 263 266 269 271 271 272 273 273 275 277 278 281 283 282 283 282 283 284 283 283 284 285 286 288 290 290 291 293 294
242 244 245 245 245 245 246 247 246 251 253 256 260 260 262 263 265 269 271 271 270 273 275 276 278 279 279 282 281 281 280 281 284 285 283 283 285 284 287 288 288 289 290 291
241 244 245 245 244 244 246 246 247 249 251 254 258 259 261 262 264 268 270 270 271 274 275 276 277 279 280 283 283 281 280 281 283 286 286 285 285 287 288 288 287 288 289 290
241 243 245 245 245 245 246 246 248 249 251 255 259 260 260 260 263 266 268 270 271 273 274 275 277 280 282 285 285 283 281 282 284 285 286 286 286 288 290 290 289 288 288 289
241 243 244 246 246 245 245 247 248 249 253 255 257 259 259 260 263 265 266 267 269 272 273 274 276 279 282 284 283 283 284 285 286 287 286 285 286 287 289 290 289 288 288 290
239 242 244 245 245 245 247 247 248 250 250 253 256 259 260 261 262 264 264 265 269 272 273 275 276 277 279 282 282 283 285 286 287 286 286 285 285 286 288 290 289 289 289 289
240 241 242 243 246 245 246 248 249 249 252 254 256 258 260 261 262 263 263 266 270 272 274 277 278 279 280 282 282 282 284 285 286 287 286 285 285 286 287 287 288 288 288 289
241 241 242 242 244 243 244 245 248 250 252 256 257 258 259 261 261 262 263 265 269 273 276 278 278 279 280 280 280 280 282 283 284 284 285 285 284 284 285 286 287 287 287 288
240 240 242 244 244 244 245 246 249 252 254 257 258 259 260 262 261 263 263 265 269 274 277 278 278 279 280 279 279 280 280 281 282 283 283 284 284 283 283 284 285 286 285 286
241 242 242 244 246 246 248 250 251 253 256 259 261 260 262 263 262 263 266 269 272 275 276 277 278 278 278 277 277 278 278 279 281 283 282 283 283 282 283 284 285 286 286 286
242 243 244 244 246 247 249 249 251 255 257 260 261 262 261 263 264 265 268 271 274 276 276 277 278 277 276 276 276 277 278 280 281 281 280 280 281 281 282 283 285 285 286 286
241 243 245 245 247 249 251 252 256 257 259 261 264 265 264 264 266 268 271 274 275 276 276 277 276 277 277 278 277 277 278 279 278 278 279 279 280 281 282 283 285 286 287 286
241 242 245 246 248 251 254 255 256 258 262 264 266 266 268 269 269 270 272 274 276 277 277 277 276 277 278 278 277 277 277 277 277 277 278 279 280 281 282 284 285 286 288 288
243 246 247 248 250 253 254 256 257 259 263 264 266 268 270 272 273 275 275 276 277 278 280 279 278 277 277 278 278 277 277 277 278 278 278 278 279 280 282 284 285 287 287 287
243 245 246 248 250 250 253 256 257 258 261 263 266 268 270 273 276 277 276 278 279 279 282 282 282 281 280 279 278 278 278 277 277 277 278 278 279 280 282 283 284 287 286 287
244 245 247 249 251 253 254 255 257 259 264 267 268 269 271 274 277 280 281 281 281 284 286 287 285 283 283 283 282 280 279 279 279 280 280 281 282 283 285 285 285 287 287 287
244 245 246 249 253 253 254 256 259 263 269 271 272 273 275 275 278 281 282 282 285 286 288 288 287 284 284 283 282 282 282 281 281 281 282 283 285 287 288 289 289 291 290 289
241 244 246 249 251 254 257 261 264 268 271 272 273 275 277 277 280 284 285 285 286 288 289 288 287 285 283 282 282 284 285 285 284 284 284 286 288 289 289 289 289 290 289 289
243 246 246 247 250 254 257 260 265 267 271 273 275 276 277 278 282 286 286 285 287 288 288 289 289 287 285 284 285 287 288 288 287 286 287 288 290 290 290 290 290 290 290 291
246 245 245 248 251 255 255 257 262 266 269 271 275 277 278 280 284 286 288 288 289 291 292 293 292 291 290 290 290 292 293 293 292 291 291 291 292 292 293 293 291 291 291 292
239 241 245 249 253 254 254 255 260 266 269 272 276 278 277 277 280 282 285 288 290 291 292 293 293 293 295 296 296 297 298 298 297 295 294 294 294 295 295 294 292 292 292 291
239 243 246 250 252 253 254 258 262 265 268 272 276 277 277 277 279 281 283 285 287 289 292 294 295 294 295 296 297 296 296 298 299 298 296 296 296 295 294 293 292 292 292 292
240 244 247 249 252 253 254 258 262 266 271 275 278 280 280 282 282 282 284 286 289 292 296 297 297 297 297 298 299 300 301 301 301 299 298 297 297 296 295 295 295 295 295 295
Height
5840 5843 5846 5848 5851 5854 5857 5859 5861 5864 5866 5869 5871 5873 5874 5874 5875 5875 5874 5874 5874 5874 5873 5873 5873 5872 5872 5871 5870 5869 5868 5867 5865 5865 5864 5863 5862 5861 5859 5857 5856 5854 5852 5850
5833 5836 5839 5841 5845 5847 5851 5853 5856 5858 5861 5863 5865 5867 5868 5869 5870 5870 5870 5870 5869 5869 5869 5869 5868 5868 5867 5867 5866 5865 5864 5863 5862 5861 5860 5859 5857 5856 5855 5853 5851 5850 5848 5846
5826 5829 5831 5834 5839 5841 5844 5847 5850 5852 5856 5857 5859 5861 5863 5864 5865 5865 5865 5865 5864 5864 5864 5864 5864 5863 5862 5861 5861 5860 5859 5858 5857 5856 5855 5854 5852 5851 5850 5848 5846 5844 5842 5840
5818 5822 5824 5830 5832 5835 5837 5840 5843 5846 5849 5851 5853 5854 5856 5858 5859 5859 5859 5859 5858 5858 5858 5858 5858 5858 5857 5856 5855 5855 5854 5853 5852 5851 5850 5848 5847 5846 5844 5842 5840 5838 5836 5834
5810 5813 5816 5822 5825 5827 5830 5833 5837 5839 5842 5844 5846 5848 5849 5851 5852 5853 5853 5852 5852 5852 5852 5852 5852 5851 5851 5850 5849 5848 5848 5847 5846 5844 5843 5842 5840 5839 5838 5836 5834 5832 5830 5828
5803 5806 5809 5815 5818 5820 5824 5826 5830 5832 5834 5837 5839 5841 5844 5844 5845 5846 5845 5845 5845 5845 5844 5844 5844 5844 5844 5843 5843 5842 5841 5840 5839 5838 5836 5835 5833 5832 5831 5829 5827 5825 5823 5821
5795 5798 5802 5807 5810 5814 5817 5821 5823 5825 5827 5829 5832 5834 5837 5837 5837 5838 5838 5838 5838 5838 5837 5837 5837 5837 5836 5836 5835 5834 5833 5832 5832 5830 5829 5827 5825 5823 5821 5820 5819 5817 5815 5813
5788 5792 5797 5800 5803 5806 5809 5813 5815 5818 5820 5822 5824 5826 5828 5829 5830 5830 5830 5831 5831 5830 5830 5829 5829 5829 5828 5827 5826 5826 5825 5824 5824 5822 5821 5819 5817 5815 5813 5811 5810 5809 5807 5805
5781 5786 5789 5791 5795 5798 5801 5805 5808 5810 5813 5815 5817 5818 5819 5820 5821 5822 5823 5823 5823 5822 5822 5822 5821 5821 5820 5819 5818 5817 5817 5816 5815 5814 5812 5811 5809 5807 5806 5804 5802 5801 5799 5797
5773 5777 5781 5784 5788 5791 5794 5797 5800 5802 5805 5807 5809 5810 5811 5812 5813 5814 5814 5815 5815 5814 5814 5814 5813 5813 5812 5811 5809 5809 5808 5807 5806 5805 5803 5802 5800 5799 5798 5796 5794 5792 5790 5788
5765 5769 5773 5777 5780 5783 5786 5789 5791 5794 5796 5799 5800 5802 5803 5804 5805 5805 5806 5806 5806 5806 5805 5805 5804 5804 5803 5802 5800 5800 5799 5798 5797 5796 5794 5793 5791 5790 5789 5787 5785 5784 5782 5780
5759 5762 5766 5770 5772 5775 5778 5781 5784 5786 5788 5790 5792 5793 5794 5795 5796 5797 5797 5797 5797 5797 5796 5796 5795 5794 5793 5792 5791 5790 5789 5788 5787 5786 5785 5784 5782 5781 5779 5778 5776 5774 5772 5770
5751 5755 5759 5762 5765 5768 5771 5773 5776 5778 5780 5782 5784 5785 5786 5787 5787 5787 5787 5787 5787 5787 5787 5786 5785 5784 5783 5782 5781 5780 5779 5779 5778 5777 5775 5774 5773 5771 5770 5769 5767 5765 5763 5761
5744 5748 5751 5755 5758 5760 5762 5765 5767 5769 5771 5773 5774 5775 5777 5777 5778 5778 5778 5777 5777 5777 5777 5776 5775 5774 5773 5772 5771 5770 5769 5769 5768 5767 5765 5764 5763 5761 5760 5758 5757 5755 5753 5750
5737 5741 5744 5747 5750 5752 5754 5756 5759 5761 5762 5764 5765 5766 5767 5768 5768 5769 5769 5768 5768 5767 5766 5765 5764 5763 5762 5762 5761 5760 5759 5758 5757 5756 5755 5754 5753 5751 5750 5748 5747 5745 5743 5740
5730 5733 5736 5739 5742 5744 5746 5748 5750 5752 5753 5755 5756 5757 5758 5758 5759 5759 5758 5758 5757 5757 5756 5755 5754 5752 5752 5751 5750 5750 5749 5748 5747 5746 5745 5744 5742 5741 5740 5738 5736 5735 5733 5731
5723 5726 5729 5732 5734 5736 5738 5740 5742 5744 5745 5746 5747 5747 5748 5749 5748 5748 5748 5748 5747 5747 5746 5744 5743 5742 5740 5739 5739 5739 5738 5737 5736 5735 5734 5733 5732 5731 5730 5728 5727 5725 5723 5721
5717 5719 5722 5725 5727 5729 5731 5733 5735 5736 5737 5738 5738 5739 5739 5739 5739 5738 5738 5738 5737 5736 5735 5734 5733 5731 5730 5729 5729 5728 5727 5726 5726 5725 5724 5723 5722 5721 5720 5718 5716 5715 5713 5711
5710 5713 5716 5718 5720 5722 5724 5726 5727 5729 5729 5730 5730 5731 5731 5731 5729 5729 5728 5728 5727 5726 5725 5724 5723 5722 5721 5719 5718 5718 5717 5716 5715 5715 5714 5713 5712 5711 5710 5708 5706 5704 5703 5700
5704 5707 5709 5712 5714 5716 5717 5719 5720 5721 5722 5722 5723 5723 5723 5722 5721 5720 5720 5719 5718 5717 5716 5715 5714 5712 5711 5710 5709 5708 5707 5706 5705 5705 5704 5704 5702 5701 5699 5698 5696 5694 5692 5690
5698 5701 5703 5705 5707 5709 5710 5712 5713 5713 5714 5714 5715 5715 5714 5714 5713 5712 5711 5711 5710 5708 5707 5706 5704 5703 5702 5701 5700 5699 5698 5697 5697 5696 5695 5694 5693 5692 5690 5688 5686 5684 5682 5680
5693 5695 5697 5699 5701 5703 5704 5705 5706 5707 5707 5707 5708 5708 5707 5707 5706 5705 5704 5703 5702 5700 5699 5698 5697 5696 5694 5693 5693 5692 5691 5689 5688 5687 5686 5685 5684 5682 5680 5678 5676 5674 5672 5670
5688 5690 5692 5694 5695 5697 5698 5699 5700 5700 5700 5701 5701 5701 5700 5700 5699 5698 5697 5697 5695 5694 5693 5692 5690 5689 5688 5687 5686 5684 5683 5682 5680 5679 5678 5676 5675 5673 5671 5669 5666 5664 5662 5660
5683 5685 5687 5688 5690 5691 5692 5693 5694 5694 5695 5695 5695 5695 5694 5693 5693 5692 5691 5691 5690 5688 5687 5686 5684 5683 5682 5681 5679 5678 5676 5674 5673 5671 5669 5667 5665 5664 5661 5659 5657 5655 5653 5650
5678 5680 5682 5683 5684 5686 5687 5688 5689 5689 5689 5690 5689 5689 5688 5688 5688 5687 5686 5686 5685 5684 5682 5681 5680 5678 5677 5675 5673 5671 5669 5667 5665 5663 5661 5659 5657 5655 5653 5651 5648 5646 5643 5641
5674 5676 5677 5678 5680 5681 5682 5683 5684 5684 5684 5684 5684 5684 5683 5683 5683 5682 5681 5680 5680 5678 5677 5676 5674 5673 5671 5669 5667 5665 5663 5660 5658 5656 5653 5651 5648 5646 5644 5641 5639 5636 5634 5631
5671 5672 5673 5674 5675 5676 5677 5678 5679 5679 5679 5680 5679 5679 5678 5678 5678 5677 5676 5676 5675 5673 5672 5670 5669 5667 5665 5663 5661 5658 5656 5654 5651 5648 5646 5643 5640 5638 5635 5632 5630 5627 5624 5621